Time,TemperatureF,DewpointF,PressureIn,WindDirection,WindDirectionDegrees,WindSpeedMPH,WindSpeedGustMPH,Humidity,HourlyPrecipIn,Conditions,Clouds,dailyrainin,SoftwareType,DateUTC
2013-02-23 00:00:00,22.2,19.7,29.89,West,264,3.0,7.0,90,0.00,,---,0.00,VWS V14.00,2013-02-23 06:00:00,
2013-02-23 00:05:00,22.1,19.6,29.89,West,259,4.0,9.0,90,0.00,,---,0.00,VWS V14.00,2013-02-23 06:05:00,
2013-02-23 00:10:00,21.9,19.4,29.89,West,265,3.0,9.0,90,0.00,,---,0.00,VWS V14.00,2013-02-23 06:10:00,
2013-02-23 00:15:00,21.7,19.2,29.89,West,267,4.0,9.0,90,0.00,,---,0.00,VWS V14.00,2013-02-23 06:15:00,
2013-02-23 00:20:00,21.6,19.1,29.89,West,275,2.0,9.0,90,0.00,,---,0.00,VWS V14.00,2013-02-23 06:20:00,
2013-02-23 00:25:00,21.5,19.0,29.89,West,275,1.0,9.0,90,0.00,,---,0.00,VWS V14.00,2013-02-23 06:25:00,
2013-02-23 00:30:00,21.5,19.0,29.89,West,276,1.0,5.0,90,0.00,,---,0.00,VWS V14.00,2013-02-23 06:30:00,
2013-02-23 00:35:00,21.4,18.9,29.89,West,275,3.0,5.0,90,0.00,,---,0.00,VWS V14.00,2013-02-23 06:35:00,
2013-02-23 00:40:00,21.3,18.8,29.89,West,279,0.0,5.0,90,0.00,,---,0.00,VWS V14.00,2013-02-23 06:40:00,
2013-02-23 00:45:00,21.3,18.8,29.89,West,279,0.0,5.0,90,0.00,,---,0.00,VWS V14.00,2013-02-23 06:45:00,
2013-02-23 00:50:00,21.2,18.7,29.89,West,281,0.0,6.0,90,0.00,,---,0.00,VWS V14.00,2013-02-23 06:50:00,
2013-02-23 00:55:00,21.1,18.6,29.89,WNW,302,1.0,7.0,90,0.00,,---,0.00,VWS V14.00,2013-02-23 06:55:00,
2013-02-23 01:00:00,21.1,18.6,29.89,West,278,4.0,7.0,90,0.00,,---,0.00,VWS V14.00,2013-02-23 07:00:00,
2013-02-23 01:05:00,21.0,18.5,29.89,West,279,3.0,10.0,90,0.00,,---,0.00,VWS V14.00,2013-02-23 07:05:00,
2013-02-23 01:10:00,20.9,18.4,29.89,WNW,288,2.0,11.0,90,0.00,,---,0.00,VWS V14.00,2013-02-23 07:10:00,
2013-02-23 01:15:00,20.8,18.3,29.89,West,277,4.0,11.0,90,0.00,,---,0.00,VWS V14.00,2013-02-23 07:15:00,
2013-02-23 01:20:00,20.7,18.2,29.88,WNW,294,5.0,11.0,90,0.00,,---,0.00,VWS V14.00,2013-02-23 07:20:00,
2013-02-23 01:25:00,20.7,18.2,29.88,WNW,300,2.0,11.0,90,0.00,,---,0.00,VWS V14.00,2013-02-23 07:25:00,
2013-02-23 01:30:00,20.7,18.2,29.88,NW,311,0.0,7.0,90,0.00,,---,0.00,VWS V14.00,2013-02-23 07:30:00,
2013-02-23 01:35:00,20.6,18.1,29.88,NW,305,3.0,7.0,90,0.00,,---,0.00,VWS V14.00,2013-02-23 07:35:00,
2013-02-23 01:40:00,20.6,18.1,29.88,WNW,297,1.0,7.0,90,0.00,,---,0.00,VWS V14.00,2013-02-23 07:40:00,
2013-02-23 01:45:00,20.5,18.0,29.88,WNW,296,0.0,7.0,90,0.00,,---,0.00,VWS V14.00,2013-02-23 07:45:00,
2013-02-23 01:50:00,20.4,17.9,29.88,WNW,296,0.0,7.0,90,0.00,,---,0.00,VWS V14.00,2013-02-23 07:50:00,
2013-02-23 01:55:00,20.3,17.8,29.88,WNW,295,0.0,7.0,90,0.00,,---,0.00,VWS V14.00,2013-02-23 07:55:00,
2013-02-23 02:00:00,20.1,17.6,29.88,West,281,2.0,5.0,90,0.00,,---,0.00,VWS V14.00,2013-02-23 08:00:00,
2013-02-23 02:05:00,20.0,17.5,29.87,WNW,289,2.0,5.0,90,0.00,,---,0.00,VWS V14.00,2013-02-23 08:05:00,
2013-02-23 02:10:00,19.9,17.5,29.88,WNW,284,2.0,5.0,90,0.00,,---,0.00,VWS V14.00,2013-02-23 08:10:00,
2013-02-23 02:15:00,19.8,17.4,29.88,West,278,3.0,6.0,90,0.00,,---,0.00,VWS V14.00,2013-02-23 08:15:00,
2013-02-23 02:20:00,19.7,17.2,29.88,West,265,2.0,9.0,90,0.00,,---,0.00,VWS V14.00,2013-02-23 08:20:00,
2013-02-23 02:25:00,19.6,17.1,29.88,West,270,3.0,9.0,90,0.00,,---,0.00,VWS V14.00,2013-02-23 08:25:00,
2013-02-23 02:30:00,19.5,17.0,29.88,WNW,283,1.0,7.0,90,0.00,,---,0.00,VWS V14.00,2013-02-23 08:30:00,
2013-02-23 02:35:00,19.3,16.9,29.88,West,276,3.0,7.0,90,0.00,,---,0.00,VWS V14.00,2013-02-23 08:35:00,
2013-02-23 02:40:00,19.3,16.9,29.88,West,281,2.0,7.0,90,0.00,,---,0.00,VWS V14.00,2013-02-23 08:40:00,
2013-02-23 02:45:00,19.2,16.8,29.88,West,281,1.0,7.0,90,0.00,,---,0.00,VWS V14.00,2013-02-23 08:45:00,
2013-02-23 02:50:00,19.2,16.8,29.88,West,272,3.0,7.0,90,0.00,,---,0.00,VWS V14.00,2013-02-23 08:50:00,
2013-02-23 02:55:00,19.2,16.8,29.88,WNW,289,0.0,7.0,90,0.00,,---,0.00,VWS V14.00,2013-02-23 08:55:00,
2013-02-23 03:00:00,19.2,16.8,29.88,West,270,3.0,6.0,90,0.00,,---,0.00,VWS V14.00,2013-02-23 09:00:00,
2013-02-23 03:05:00,19.2,16.8,29.88,WNW,284,2.0,7.0,90,0.00,,---,0.00,VWS V14.00,2013-02-23 09:05:00,
2013-02-23 03:10:00,19.2,16.8,29.88,WNW,284,3.0,7.0,90,0.00,,---,0.00,VWS V14.00,2013-02-23 09:10:00,
2013-02-23 03:15:00,19.2,16.8,29.88,WNW,284,2.0,7.0,90,0.00,,---,0.00,VWS V14.00,2013-02-23 09:15:00,
2013-02-23 03:20:00,19.2,16.8,29.87,WNW,284,0.0,7.0,90,0.00,,---,0.00,VWS V14.00,2013-02-23 09:20:00,
2013-02-23 03:25:00,19.3,16.9,29.88,NW,308,0.0,7.0,90,0.00,,---,0.00,VWS V14.00,2013-02-23 09:25:00,
2013-02-23 03:30:00,19.3,16.9,29.87,NW,304,0.0,4.0,90,0.00,,---,0.00,VWS V14.00,2013-02-23 09:30:00,
2013-02-23 03:35:00,19.4,17.0,29.87,WSW,258,4.0,6.0,90,0.00,,---,0.00,VWS V14.00,2013-02-23 09:35:00,
2013-02-23 03:40:00,19.4,17.2,29.87,WNW,286,1.0,6.0,91,0.00,,---,0.00,VWS V14.00,2013-02-23 09:40:00,
2013-02-23 03:45:00,19.5,17.3,29.87,WNW,286,0.0,6.0,91,0.00,,---,0.00,VWS V14.00,2013-02-23 09:45:00,
2013-02-23 03:50:00,19.5,17.3,29.87,West,273,3.0,6.0,91,0.00,,---,0.00,VWS V14.00,2013-02-23 09:50:00,
2013-02-23 03:55:00,19.6,17.4,29.87,West,273,0.0,6.0,91,0.00,,---,0.00,VWS V14.00,2013-02-23 09:55:00,
2013-02-23 04:00:00,19.7,17.5,29.87,West,281,0.0,4.0,91,0.00,,---,0.00,VWS V14.00,2013-02-23 10:00:00,
2013-02-23 04:05:00,19.8,17.6,29.87,WNW,282,0.0,4.0,91,0.00,,---,0.00,VWS V14.00,2013-02-23 10:05:00,
2013-02-23 04:10:00,19.9,17.7,29.88,WNW,288,3.0,6.0,91,0.00,,---,0.00,VWS V14.00,2013-02-23 10:10:00,
2013-02-23 04:15:00,20.0,17.8,29.87,WNW,282,1.0,6.0,91,0.00,,---,0.00,VWS V14.00,2013-02-23 10:15:00,
2013-02-23 04:20:00,20.0,17.8,29.87,WNW,282,0.0,6.0,91,0.00,,---,0.00,VWS V14.00,2013-02-23 10:20:00,
2013-02-23 04:25:00,20.1,17.9,29.87,West,281,0.0,6.0,91,0.00,,---,0.00,VWS V14.00,2013-02-23 10:25:00,
2013-02-23 04:30:00,20.1,17.9,29.87,West,278,2.0,5.0,91,0.00,,---,0.00,VWS V14.00,2013-02-23 10:30:00,
2013-02-23 04:35:00,20.1,17.9,29.87,West,278,1.0,5.0,91,0.00,,---,0.00,VWS V14.00,2013-02-23 10:35:00,
2013-02-23 04:40:00,20.1,17.9,29.87,West,279,3.0,5.0,91,0.00,,---,0.00,VWS V14.00,2013-02-23 10:40:00,
2013-02-23 04:45:00,20.2,18.0,29.88,West,273,1.0,6.0,91,0.00,,---,0.00,VWS V14.00,2013-02-23 10:45:00,
2013-02-23 04:50:00,20.2,18.0,29.88,West,272,3.0,6.0,91,0.00,,---,0.00,VWS V14.00,2013-02-23 10:50:00,
2013-02-23 04:55:00,20.3,18.1,29.88,West,272,0.0,6.0,91,0.00,,---,0.00,VWS V14.00,2013-02-23 10:55:00,
2013-02-23 05:00:00,20.3,18.1,29.88,West,281,3.0,6.0,91,0.00,,---,0.00,VWS V14.00,2013-02-23 11:00:00,
2013-02-23 05:05:00,20.3,18.1,29.88,WNW,288,0.0,6.0,91,0.00,,---,0.00,VWS V14.00,2013-02-23 11:05:00,
2013-02-23 05:10:00,20.4,18.2,29.88,WNW,291,1.0,6.0,91,0.00,,---,0.00,VWS V14.00,2013-02-23 11:10:00,
2013-02-23 05:15:00,20.4,18.2,29.88,WNW,291,0.0,6.0,91,0.00,,---,0.00,VWS V14.00,2013-02-23 11:15:00,
2013-02-23 05:20:00,20.5,18.5,29.87,WNW,293,0.0,6.0,92,0.00,,---,0.00,VWS V14.00,2013-02-23 11:20:00,
2013-02-23 05:25:00,20.5,18.3,29.87,WNW,293,4.0,6.0,91,0.00,,---,0.00,VWS V14.00,2013-02-23 11:25:00,
2013-02-23 05:30:00,20.5,18.3,29.87,WNW,293,0.0,5.0,91,0.00,,---,0.00,VWS V14.00,2013-02-23 11:30:00,
2013-02-23 05:35:00,20.5,18.5,29.87,WNW,294,2.0,5.0,92,0.00,,---,0.00,VWS V14.00,2013-02-23 11:35:00,
2013-02-23 05:40:00,20.5,18.3,29.87,WNW,294,0.0,5.0,91,0.00,,---,0.00,VWS V14.00,2013-02-23 11:40:00,
2013-02-23 05:45:00,20.5,18.3,29.88,WNW,294,0.0,5.0,91,0.00,,---,0.00,VWS V14.00,2013-02-23 11:45:00,
2013-02-23 05:50:00,20.4,18.2,29.88,WNW,294,2.0,5.0,91,0.00,,---,0.00,VWS V14.00,2013-02-23 11:50:00,
2013-02-23 05:55:00,20.4,18.2,29.88,WNW,294,0.0,5.0,91,0.00,,---,0.00,VWS V14.00,2013-02-23 11:55:00,
2013-02-23 06:00:00,20.4,18.2,29.88,WNW,291,2.0,5.0,91,0.00,,---,0.00,VWS V14.00,2013-02-23 12:00:00,
2013-02-23 06:05:00,20.3,18.1,29.88,West,275,2.0,6.0,91,0.00,,---,0.00,VWS V14.00,2013-02-23 12:05:00,
2013-02-23 06:10:00,20.3,18.1,29.88,West,269,2.0,6.0,91,0.00,,---,0.00,VWS V14.00,2013-02-23 12:10:00,
2013-02-23 06:15:00,20.2,18.0,29.87,West,269,1.0,6.0,91,0.00,,---,0.00,VWS V14.00,2013-02-23 12:15:00,
2013-02-23 06:20:00,20.2,18.0,29.88,WNW,283,2.0,6.0,91,0.00,,---,0.00,VWS V14.00,2013-02-23 12:20:00,
2013-02-23 06:25:00,20.2,18.0,29.88,West,279,2.0,6.0,91,0.00,,---,0.00,VWS V14.00,2013-02-23 12:25:00,
2013-02-23 06:30:00,20.1,17.9,29.88,West,268,2.0,7.0,91,0.00,,---,0.00,VWS V14.00,2013-02-23 12:30:00,
2013-02-23 06:35:00,20.1,17.9,29.88,West,280,3.0,7.0,91,0.00,,---,0.00,VWS V14.00,2013-02-23 12:35:00,
2013-02-23 06:40:00,20.0,17.8,29.88,West,281,0.0,7.0,91,0.00,,---,0.00,VWS V14.00,2013-02-23 12:40:00,
2013-02-23 06:45:00,20.1,17.9,29.88,NW,304,2.0,7.0,91,0.00,,---,0.00,VWS V14.00,2013-02-23 12:45:00,
2013-02-23 06:50:00,20.0,17.8,29.88,NW,304,1.0,7.0,91,0.00,,---,0.00,VWS V14.00,2013-02-23 12:50:00,
2013-02-23 06:55:00,20.2,18.0,29.89,NW,304,0.0,7.0,91,0.00,,---,0.00,VWS V14.00,2013-02-23 12:55:00,
2013-02-23 07:00:00,20.2,18.0,29.88,NW,304,0.0,4.0,91,0.00,,---,0.00,VWS V14.00,2013-02-23 13:00:00,
2013-02-23 07:05:00,20.3,18.1,29.88,NW,304,0.0,4.0,91,0.00,,---,0.00,VWS V14.00,2013-02-23 13:05:00,
2013-02-23 07:10:00,20.3,18.1,29.88,NW,304,2.0,4.0,91,0.00,,---,0.00,VWS V14.00,2013-02-23 13:10:00,
2013-02-23 07:15:00,20.3,18.1,29.88,NW,304,0.0,4.0,91,0.00,,---,0.00,VWS V14.00,2013-02-23 13:15:00,
2013-02-23 07:20:00,20.5,18.3,29.88,NW,304,2.0,4.0,91,0.00,,---,0.00,VWS V14.00,2013-02-23 13:20:00,
2013-02-23 07:25:00,20.6,18.6,29.88,NW,304,0.0,4.0,92,0.00,,---,0.00,VWS V14.00,2013-02-23 13:25:00,
2013-02-23 07:30:00,20.7,18.8,29.88,NW,304,0.0,0.0,92,0.00,,---,0.00,VWS V14.00,2013-02-23 13:30:00,
2013-02-23 07:35:00,20.8,18.9,29.88,NW,304,0.0,0.0,92,0.00,,---,0.00,VWS V14.00,2013-02-23 13:35:00,
2013-02-23 07:40:00,20.9,19.0,29.88,NW,304,0.0,0.0,92,0.00,,---,0.00,VWS V14.00,2013-02-23 13:40:00,
2013-02-23 07:45:00,21.0,19.0,29.88,NW,304,0.0,0.0,92,0.00,,---,0.00,VWS V14.00,2013-02-23 13:45:00,
2013-02-23 07:50:00,21.2,19.2,29.88,NW,304,0.0,3.0,92,0.00,,---,0.00,VWS V14.00,2013-02-23 13:50:00,
2013-02-23 07:55:00,21.3,19.3,29.88,NW,304,0.0,3.0,92,0.00,,---,0.00,VWS V14.00,2013-02-23 13:55:00,
2013-02-23 08:00:00,21.5,19.5,29.88,NW,304,0.0,3.0,92,0.00,,---,0.00,VWS V14.00,2013-02-23 14:00:00,
2013-02-23 08:05:00,21.6,19.6,29.87,NW,304,0.0,3.0,92,0.00,,---,0.00,VWS V14.00,2013-02-23 14:05:00,
2013-02-23 08:10:00,21.6,19.6,29.88,NW,304,0.0,3.0,92,0.00,,---,0.00,VWS V14.00,2013-02-23 14:10:00,
2013-02-23 08:15:00,21.7,19.7,29.88,NW,305,3.0,5.0,92,0.00,,---,0.00,VWS V14.00,2013-02-23 14:15:00,
2013-02-23 08:20:00,21.7,19.7,29.88,NW,306,0.0,5.0,92,0.00,,---,0.00,VWS V14.00,2013-02-23 14:20:00,
2013-02-23 08:25:00,21.8,19.8,29.88,NW,306,3.0,5.0,92,0.00,,---,0.00,VWS V14.00,2013-02-23 14:25:00,
2013-02-23 08:30:00,22.0,20.0,29.87,NW,306,0.0,0.0,92,0.00,,---,0.00,VWS V14.00,2013-02-23 14:30:00,
2013-02-23 08:35:00,22.1,20.4,29.88,NW,306,0.0,3.0,93,0.00,,---,0.00,VWS V14.00,2013-02-23 14:35:00,
2013-02-23 08:40:00,22.3,20.6,29.88,NW,306,0.0,3.0,93,0.00,,---,0.00,VWS V14.00,2013-02-23 14:40:00,
2013-02-23 08:45:00,22.5,20.5,29.88,NW,306,0.0,3.0,92,0.00,,---,0.00,VWS V14.00,2013-02-23 14:45:00,
2013-02-23 08:50:00,22.7,21.0,29.88,NW,306,0.0,3.0,93,0.00,,---,0.00,VWS V14.00,2013-02-23 14:50:00,
2013-02-23 08:55:00,22.8,20.8,29.88,NW,306,0.0,3.0,92,0.00,,---,0.00,VWS V14.00,2013-02-23 14:55:00,
2013-02-23 09:00:00,23.0,21.0,29.88,NW,304,2.0,5.0,92,0.00,,---,0.00,VWS V14.00,2013-02-23 15:00:00,
2013-02-23 09:05:00,23.1,21.1,29.88,West,270,5.0,6.0,92,0.00,,---,0.00,VWS V14.00,2013-02-23 15:05:00,
2013-02-23 09:09:00,22.6,20.1,29.88,West,267,2.0,6.0,90,0.00,,---,0.00,VWS V14.00,2013-02-23 15:09:00,
2013-02-23 09:15:00,22.6,20.4,29.88,West,267,0.0,6.0,91,0.00,,---,0.00,VWS V14.00,2013-02-23 15:15:00,
2013-02-23 09:19:00,22.7,20.5,29.88,West,267,0.0,6.0,91,0.00,,---,0.00,VWS V14.00,2013-02-23 15:19:00,
2013-02-23 09:24:00,22.9,20.4,29.88,West,267,0.0,6.0,90,0.00,,---,0.00,VWS V14.00,2013-02-23 15:24:00,
2013-02-23 09:29:00,23.0,20.5,29.88,West,267,0.0,0.0,90,0.00,,---,0.00,VWS V14.00,2013-02-23 15:29:00,
2013-02-23 09:30:00,22.9,20.4,29.88,West,267,0.0,6.0,90,0.00,,---,0.00,VWS V14.00,2013-02-23 15:30:00,
2013-02-23 09:34:00,23.3,20.8,29.88,West,267,0.0,0.0,90,0.00,,---,0.00,VWS V14.00,2013-02-23 15:34:00,
2013-02-23 09:40:00,23.8,21.3,29.89,West,267,0.0,0.0,90,0.00,,---,0.00,VWS V14.00,2013-02-23 15:40:00,
2013-02-23 09:45:00,24.3,21.8,29.88,West,267,0.0,0.0,90,0.00,,---,0.00,VWS V14.00,2013-02-23 15:45:00,
2013-02-23 09:49:00,24.6,21.8,29.88,West,267,0.0,0.0,89,0.00,,---,0.00,VWS V14.00,2013-02-23 15:49:00,
2013-02-23 09:54:00,24.5,21.5,29.88,West,267,0.0,3.0,88,0.00,,---,0.00,VWS V14.00,2013-02-23 15:54:00,
2013-02-23 09:59:00,24.4,21.4,29.89,West,267,1.0,4.0,88,0.00,,---,0.00,VWS V14.00,2013-02-23 15:59:00,
2013-02-23 10:00:00,24.5,21.5,29.88,West,267,0.0,3.0,88,0.00,,---,0.00,VWS V14.00,2013-02-23 16:00:00,
2013-02-23 10:04:00,24.4,21.4,29.89,West,267,3.0,6.0,88,0.00,,---,0.00,VWS V14.00,2013-02-23 16:04:00,
2013-02-23 10:09:00,24.5,21.5,29.89,West,267,0.0,6.0,88,0.00,,---,0.00,VWS V14.00,2013-02-23 16:09:00,
2013-02-23 10:14:00,24.8,21.8,29.89,West,267,1.0,6.0,88,0.00,,---,0.00,VWS V14.00,2013-02-23 16:14:00,
2013-02-23 10:19:00,25.0,22.0,29.89,West,267,0.0,6.0,88,0.00,,---,0.00,VWS V14.00,2013-02-23 16:19:00,
2013-02-23 10:24:00,25.1,22.0,29.89,SW,225,5.0,7.0,88,0.00,,---,0.00,VWS V14.00,2013-02-23 16:24:00,
2013-02-23 10:29:00,24.9,21.9,29.89,SW,232,2.0,3.0,88,0.00,,---,0.00,VWS V14.00,2013-02-23 16:29:00,
2013-02-23 10:30:00,24.9,21.6,29.89,SW,232,3.0,7.0,87,0.00,,---,0.00,VWS V14.00,2013-02-23 16:30:00,
2013-02-23 10:34:00,25.0,22.0,29.89,SSW,213,0.0,5.0,88,0.00,,---,0.00,VWS V14.00,2013-02-23 16:34:00,
2013-02-23 10:39:00,25.1,21.8,29.89,SW,224,3.0,5.0,87,0.00,,---,0.00,VWS V14.00,2013-02-23 16:39:00,
2013-02-23 10:44:00,25.0,21.7,29.90,SW,236,4.0,5.0,87,0.00,,---,0.00,VWS V14.00,2013-02-23 16:44:00,
2013-02-23 10:49:00,25.0,21.7,29.90,SW,230,3.0,5.0,87,0.00,,---,0.00,VWS V14.00,2013-02-23 16:49:00,
2013-02-23 10:54:00,25.1,22.0,29.90,SW,231,0.0,5.0,88,0.00,,---,0.00,VWS V14.00,2013-02-23 16:54:00,
2013-02-23 10:59:00,25.2,21.9,29.90,SW,232,2.0,6.0,87,0.00,,---,0.00,VWS V14.00,2013-02-23 16:59:00,
2013-02-23 11:00:00,25.2,22.1,29.90,SW,229,3.0,5.0,88,0.00,,---,0.00,VWS V14.00,2013-02-23 17:00:00,
2013-02-23 11:04:00,25.4,22.1,29.90,SW,232,3.0,6.0,87,0.00,,---,0.00,VWS V14.00,2013-02-23 17:04:00,
2013-02-23 11:09:00,25.7,22.4,29.90,SW,225,3.0,6.0,87,0.00,,---,0.00,VWS V14.00,2013-02-23 17:09:00,
2013-02-23 11:14:00,25.9,22.3,29.90,WSW,244,5.0,7.0,86,0.00,,---,0.00,VWS V14.00,2013-02-23 17:14:00,
2013-02-23 11:19:00,25.8,22.2,29.90,WSW,247,3.0,7.0,86,0.00,,---,0.00,VWS V14.00,2013-02-23 17:19:00,
2013-02-23 11:24:00,25.7,22.1,29.89,SW,225,3.0,9.0,86,0.00,,---,0.00,VWS V14.00,2013-02-23 17:24:00,
2013-02-23 11:29:00,25.7,22.1,29.89,WSW,245,5.0,8.0,86,0.00,,---,0.01,VWS V14.00,2013-02-23 17:29:00,
2013-02-23 11:30:00,25.7,22.1,29.89,SW,233,5.0,9.0,86,0.00,,---,0.00,VWS V14.00,2013-02-23 17:30:00,
2013-02-23 11:34:00,26.0,22.4,29.89,WSW,238,0.0,8.0,86,0.00,,---,0.01,VWS V14.00,2013-02-23 17:34:00,
2013-02-23 11:39:00,26.3,22.4,29.89,WSW,250,5.0,8.0,85,0.00,,---,0.01,VWS V14.00,2013-02-23 17:39:00,
2013-02-23 11:44:00,26.4,22.5,29.89,WSW,248,3.0,8.0,85,0.00,,---,0.01,VWS V14.00,2013-02-23 17:44:00,
2013-02-23 11:49:00,26.6,22.7,29.89,WSW,246,3.0,8.0,85,0.00,,---,0.01,VWS V14.00,2013-02-23 17:49:00,
2013-02-23 11:54:00,26.7,22.8,29.89,SW,235,0.0,8.0,85,0.00,,---,0.01,VWS V14.00,2013-02-23 17:54:00,
2013-02-23 11:59:00,27.1,22.9,29.89,WSW,247,3.0,5.0,84,0.00,,---,0.01,VWS V14.00,2013-02-23 17:59:00,
2013-02-23 12:00:00,26.9,23.0,29.89,WSW,242,1.0,8.0,85,0.00,,---,0.01,VWS V14.00,2013-02-23 18:00:00,
2013-02-23 12:04:00,27.0,22.5,29.89,SW,218,7.0,9.0,83,0.00,,---,0.01,VWS V14.00,2013-02-23 18:04:00,
2013-02-23 12:09:00,26.6,22.1,29.89,WSW,243,5.0,9.0,83,0.00,,---,0.01,VWS V14.00,2013-02-23 18:09:00,
2013-02-23 12:14:00,26.6,22.4,29.89,SSW,213,6.0,9.0,84,0.00,,---,0.01,VWS V14.00,2013-02-23 18:14:00,
2013-02-23 12:19:00,26.6,22.1,29.89,SW,232,5.0,9.0,83,0.00,,---,0.01,VWS V14.00,2013-02-23 18:19:00,
2013-02-23 12:24:00,26.4,22.0,29.89,WSW,244,5.0,9.0,83,0.00,,---,0.01,VWS V14.00,2013-02-23 18:24:00,
2013-02-23 12:29:00,26.3,21.9,29.89,SW,236,6.0,9.0,83,0.00,,---,0.01,VWS V14.00,2013-02-23 18:29:00,
2013-02-23 12:30:00,26.4,22.0,29.89,SW,231,7.0,9.0,83,0.00,,---,0.01,VWS V14.00,2013-02-23 18:30:00,
2013-02-23 12:34:00,26.3,21.9,29.89,SW,233,6.0,9.0,83,0.00,,---,0.01,VWS V14.00,2013-02-23 18:34:00,
2013-02-23 12:39:00,26.3,21.9,29.89,WSW,246,3.0,10.0,83,0.00,,---,0.01,VWS V14.00,2013-02-23 18:39:00,
2013-02-23 12:44:00,26.2,21.5,29.89,SW,233,4.0,10.0,82,0.00,,---,0.01,VWS V14.00,2013-02-23 18:44:00,
2013-02-23 12:49:00,26.1,21.4,29.89,WSW,244,5.0,10.0,82,0.00,,---,0.01,VWS V14.00,2013-02-23 18:49:00,
2013-02-23 12:54:00,26.0,21.3,29.89,SW,232,5.0,10.0,82,0.00,,---,0.01,VWS V14.00,2013-02-23 18:54:00,
2013-02-23 12:59:00,26.3,21.6,29.89,WSW,247,4.0,8.0,82,0.00,,---,0.01,VWS V14.00,2013-02-23 18:59:00,
2013-02-23 13:00:00,26.1,21.4,29.89,SW,227,3.0,10.0,82,0.00,,---,0.01,VWS V14.00,2013-02-23 19:00:00,
2013-02-23 13:04:00,26.1,21.1,29.88,SW,233,7.0,10.0,81,0.00,,---,0.01,VWS V14.00,2013-02-23 19:04:00,
2013-02-23 13:09:00,26.0,21.0,29.88,WSW,242,5.0,11.0,81,0.00,,---,0.01,VWS V14.00,2013-02-23 19:09:00,
2013-02-23 13:14:00,26.0,21.3,29.88,WSW,240,4.0,11.0,82,0.00,,---,0.01,VWS V14.00,2013-02-23 19:14:00,
2013-02-23 13:19:00,26.4,21.7,29.88,SW,232,2.0,11.0,82,0.00,,---,0.01,VWS V14.00,2013-02-23 19:19:00,
2013-02-23 13:24:00,26.9,22.1,29.88,WSW,255,2.0,11.0,82,0.00,,---,0.01,VWS V14.00,2013-02-23 19:24:00,
2013-02-23 13:29:00,27.2,22.1,29.88,SW,236,4.0,7.0,81,0.00,,---,0.01,VWS V14.00,2013-02-23 19:29:00,
2013-02-23 13:30:00,27.1,22.1,29.88,WSW,249,6.0,11.0,81,0.00,,---,0.01,VWS V14.00,2013-02-23 19:30:00,
2013-02-23 13:34:00,27.5,22.5,29.88,WSW,246,2.0,7.0,81,0.00,,---,0.01,VWS V14.00,2013-02-23 19:34:00,
2013-02-23 13:39:00,27.9,22.8,29.88,SW,236,6.0,7.0,81,0.00,,---,0.01,VWS V14.00,2013-02-23 19:39:00,
2013-02-23 13:44:00,27.7,22.6,29.88,SW,231,5.0,9.0,81,0.00,,---,0.01,VWS V14.00,2013-02-23 19:44:00,
2013-02-23 13:49:00,27.8,22.7,29.88,SW,224,7.0,10.0,81,0.00,,---,0.01,VWS V14.00,2013-02-23 19:49:00,
2013-02-23 13:54:00,27.9,22.8,29.88,WSW,240,2.0,10.0,81,0.00,,---,0.01,VWS V14.00,2013-02-23 19:54:00,
2013-02-23 13:59:00,28.3,23.2,29.88,WSW,237,2.0,4.0,81,0.00,,---,0.01,VWS V14.00,2013-02-23 19:59:00,
2013-02-23 14:00:00,28.1,23.0,29.88,SW,236,4.0,10.0,81,0.00,,---,0.01,VWS V14.00,2013-02-23 20:00:00,
2013-02-23 14:04:00,28.6,23.2,29.88,West,266,6.0,8.0,80,0.00,,---,0.01,VWS V14.00,2013-02-23 20:04:00,
2013-02-23 14:09:00,28.5,23.1,29.88,SW,234,5.0,8.0,80,0.00,,---,0.01,VWS V14.00,2013-02-23 20:09:00,
2013-02-23 14:14:00,28.5,23.1,29.88,SW,232,3.0,8.0,80,0.00,,---,0.01,VWS V14.00,2013-02-23 20:14:00,
2013-02-23 14:19:00,28.7,23.0,29.88,WSW,247,5.0,8.0,79,0.00,,---,0.01,VWS V14.00,2013-02-23 20:19:00,
2013-02-23 14:24:00,28.8,23.1,29.88,WSW,241,0.0,8.0,79,0.00,,---,0.01,VWS V14.00,2013-02-23 20:24:00,
2013-02-23 14:29:00,29.0,23.3,29.88,WSW,252,5.0,7.0,79,0.00,,---,0.01,VWS V14.00,2013-02-23 20:29:00,
2013-02-23 14:30:00,29.0,23.3,29.88,SW,234,4.0,10.0,79,0.00,,---,0.01,VWS V14.00,2013-02-23 20:30:00,
2013-02-23 14:34:00,28.9,22.9,29.88,WSW,247,5.0,8.0,78,0.00,,---,0.01,VWS V14.00,2013-02-23 20:34:00,
2013-02-23 14:39:00,28.8,22.8,29.87,SSW,201,7.0,10.0,78,0.00,,---,0.01,VWS V14.00,2013-02-23 20:39:00,
2013-02-23 14:44:00,28.8,23.1,29.87,WSW,238,4.0,10.0,79,0.00,,---,0.01,VWS V14.00,2013-02-23 20:44:00,
2013-02-23 14:49:00,28.8,23.1,29.88,WSW,240,6.0,10.0,79,0.00,,---,0.01,VWS V14.00,2013-02-23 20:49:00,
2013-02-23 14:54:00,28.7,23.0,29.88,SW,227,4.0,10.0,79,0.00,,---,0.01,VWS V14.00,2013-02-23 20:54:00,
2013-02-23 14:59:00,28.9,23.2,29.88,SW,218,2.0,5.0,79,0.00,,---,0.01,VWS V14.00,2013-02-23 20:59:00,
2013-02-23 15:00:00,28.7,23.0,29.88,SW,216,3.0,10.0,79,0.00,,---,0.01,VWS V14.00,2013-02-23 21:00:00,
2013-02-23 15:04:00,28.9,23.2,29.88,West,260,5.0,9.0,79,0.00,,---,0.01,VWS V14.00,2013-02-23 21:04:00,
2013-02-23 15:09:00,28.9,23.5,29.88,WSW,243,2.0,9.0,80,0.00,,---,0.01,VWS V14.00,2013-02-23 21:09:00,
2013-02-23 15:14:00,29.0,23.3,29.88,SW,232,4.0,9.0,79,0.00,,---,0.01,VWS V14.00,2013-02-23 21:14:00,
2013-02-23 15:19:00,28.9,23.2,29.88,WSW,252,3.0,11.0,79,0.00,,---,0.01,VWS V14.00,2013-02-23 21:19:00,
2013-02-23 15:24:00,28.9,23.2,29.88,SW,230,2.0,11.0,79,0.00,,---,0.01,VWS V14.00,2013-02-23 21:24:00,
2013-02-23 15:29:00,28.7,23.0,29.88,WSW,237,4.0,7.0,79,0.00,,---,0.01,VWS V14.00,2013-02-23 21:29:00,
2013-02-23 15:30:00,28.8,23.1,29.87,West,259,3.0,11.0,79,0.00,,---,0.01,VWS V14.00,2013-02-23 21:30:00,
2013-02-23 15:34:00,28.4,22.4,29.88,WSW,256,5.0,9.0,78,0.00,,---,0.01,VWS V14.00,2013-02-23 21:34:00,
2013-02-23 15:39:00,28.1,21.8,29.88,SW,234,6.0,10.0,77,0.00,,---,0.01,VWS V14.00,2013-02-23 21:39:00,
2013-02-23 15:44:00,27.5,21.2,29.88,WSW,243,5.0,10.0,77,0.00,,---,0.01,VWS V14.00,2013-02-23 21:44:00,
2013-02-23 15:49:00,27.1,21.2,29.88,WSW,248,4.0,11.0,78,0.00,,---,0.01,VWS V14.00,2013-02-23 21:49:00,
2013-02-23 15:54:00,26.8,20.9,29.88,WSW,258,3.0,11.0,78,0.00,,---,0.01,VWS V14.00,2013-02-23 21:54:00,
2013-02-23 15:59:00,26.7,21.1,29.88,SW,236,3.0,7.0,79,0.00,,---,0.01,VWS V14.00,2013-02-23 21:59:00,
2013-02-23 16:00:00,26.7,20.8,29.88,WSW,256,5.0,11.0,78,0.00,,---,0.01,VWS V14.00,2013-02-23 22:00:00,
2013-02-23 16:04:00,26.7,21.1,29.88,WSW,239,9.0,10.0,79,0.00,,---,0.01,VWS V14.00,2013-02-23 22:04:00,
2013-02-23 16:09:00,26.5,20.9,29.89,WSW,242,5.0,10.0,79,0.00,,---,0.01,VWS V14.00,2013-02-23 22:09:00,
2013-02-23 16:14:00,26.4,20.8,29.89,WSW,248,5.0,11.0,79,0.00,,---,0.01,VWS V14.00,2013-02-23 22:14:00,
2013-02-23 16:19:00,26.3,20.7,29.89,SW,233,7.0,12.0,79,0.00,,---,0.01,VWS V14.00,2013-02-23 22:19:00,
2013-02-23 16:24:00,26.2,20.6,29.89,SW,232,5.0,12.0,79,0.00,,---,0.01,VWS V14.00,2013-02-23 22:24:00,
2013-02-23 16:29:00,26.0,20.4,29.89,SW,234,5.0,7.0,79,0.00,,---,0.01,VWS V14.00,2013-02-23 22:29:00,
2013-02-23 16:30:00,26.1,20.5,29.88,WSW,242,6.0,12.0,79,0.00,,---,0.01,VWS V14.00,2013-02-23 22:30:00,
2013-02-23 16:34:00,25.8,20.5,29.89,WSW,240,9.0,9.0,80,0.00,,---,0.01,VWS V14.00,2013-02-23 22:34:00,
2013-02-23 16:39:00,25.7,20.4,29.89,WSW,238,4.0,10.0,80,0.00,,---,0.01,VWS V14.00,2013-02-23 22:39:00,
2013-02-23 16:44:00,25.7,20.4,29.89,West,260,5.0,10.0,80,0.00,,---,0.01,VWS V14.00,2013-02-23 22:44:00,
2013-02-23 16:49:00,25.7,20.4,29.89,WSW,244,3.0,10.0,80,0.00,,---,0.01,VWS V14.00,2013-02-23 22:49:00,
2013-02-23 16:54:00,25.5,20.2,29.89,WSW,247,6.0,10.0,80,0.00,,---,0.01,VWS V14.00,2013-02-23 22:54:00,
2013-02-23 16:59:00,25.3,20.3,29.89,WSW,244,6.0,7.0,81,0.00,,---,0.01,VWS V14.00,2013-02-23 22:59:00,
2013-02-23 17:00:00,25.4,20.4,29.89,WSW,248,5.0,10.0,81,0.00,,---,0.01,VWS V14.00,2013-02-23 23:00:00,
2013-02-23 17:04:00,24.9,19.9,29.89,SW,234,5.0,9.0,81,0.00,,---,0.01,VWS V14.00,2013-02-23 23:04:00,
2013-02-23 17:09:00,24.6,19.9,29.89,WSW,242,5.0,9.0,82,0.00,,---,0.01,VWS V14.00,2013-02-23 23:09:00,
2013-02-23 17:14:00,24.4,19.7,29.89,WSW,245,4.0,9.0,82,0.00,,---,0.01,VWS V14.00,2013-02-23 23:14:00,
2013-02-23 17:19:00,24.2,19.8,29.90,WSW,237,4.0,9.0,83,0.00,,---,0.01,VWS V14.00,2013-02-23 23:19:00,
2013-02-23 17:24:00,23.8,19.4,29.89,WSW,242,6.0,9.0,83,0.00,,---,0.01,VWS V14.00,2013-02-23 23:24:00,
2013-02-23 17:29:00,23.4,19.3,29.90,WSW,239,5.0,5.0,84,0.00,,---,0.01,VWS V14.00,2013-02-23 23:29:00,
2013-02-23 17:30:00,23.5,19.1,29.90,WSW,240,4.0,9.0,83,0.00,,---,0.01,VWS V14.00,2013-02-23 23:30:00,
2013-02-23 17:34:00,23.1,19.0,29.90,WSW,242,3.0,6.0,84,0.00,,---,0.01,VWS V14.00,2013-02-23 23:34:00,
2013-02-23 17:39:00,22.9,18.8,29.90,WSW,242,4.0,6.0,84,0.00,,---,0.01,VWS V14.00,2013-02-23 23:39:00,
2013-02-23 17:44:00,22.5,18.7,29.90,WSW,242,3.0,6.0,85,0.00,,---,0.01,VWS V14.00,2013-02-23 23:44:00,
2013-02-23 17:49:00,22.2,18.4,29.90,WSW,242,3.0,6.0,85,0.00,,---,0.01,VWS V14.00,2013-02-23 23:49:00,
2013-02-23 17:54:00,21.9,18.4,29.90,WSW,242,3.0,6.0,86,0.00,,---,0.01,VWS V14.00,2013-02-23 23:54:00,
2013-02-23 17:59:00,21.7,18.2,29.90,WSW,241,2.0,5.0,86,0.00,,---,0.01,VWS V14.00,2013-02-23 23:59:00,
2013-02-23 18:00:00,21.8,18.3,29.90,WSW,242,3.0,6.0,86,0.00,,---,0.01,VWS V14.00,2013-02-24 00:00:00,
2013-02-23 18:04:00,21.4,18.1,29.90,WSW,240,2.0,6.0,87,0.00,,---,0.01,VWS V14.00,2013-02-24 00:04:00,
2013-02-23 18:09:00,21.2,17.9,29.90,WSW,240,1.0,6.0,87,0.00,,---,0.01,VWS V14.00,2013-02-24 00:09:00,
2013-02-23 18:14:00,20.8,17.5,29.91,WSW,240,2.0,6.0,87,0.00,,---,0.01,VWS V14.00,2013-02-24 00:14:00,
2013-02-23 18:19:00,20.6,17.6,29.91,WSW,240,0.0,6.0,88,0.00,,---,0.01,VWS V14.00,2013-02-24 00:19:00,
2013-02-23 18:24:00,20.3,17.3,29.91,WSW,240,0.0,6.0,88,0.00,,---,0.01,VWS V14.00,2013-02-24 00:24:00,
2013-02-23 18:29:00,20.0,17.0,29.91,WSW,240,0.0,0.0,88,0.00,,---,0.01,VWS V14.00,2013-02-24 00:29:00,
2013-02-23 18:30:00,20.2,17.2,29.91,WSW,240,0.0,6.0,88,0.00,,---,0.01,VWS V14.00,2013-02-24 00:30:00,
2013-02-23 18:34:00,19.6,16.6,29.92,WSW,241,3.0,5.0,88,0.00,,---,0.01,VWS V14.00,2013-02-24 00:34:00,
2013-02-23 18:39:00,19.3,16.6,29.92,WSW,239,1.0,5.0,89,0.00,,---,0.01,VWS V14.00,2013-02-24 00:39:00,
2013-02-23 18:44:00,19.1,16.4,29.92,WSW,239,2.0,5.0,89,0.00,,---,0.01,VWS V14.00,2013-02-24 00:44:00,
2013-02-23 18:49:00,18.9,16.2,29.92,WSW,239,0.0,5.0,89,0.00,,---,0.01,VWS V14.00,2013-02-24 00:49:00,
2013-02-23 18:54:00,18.6,15.9,29.93,WSW,239,0.0,5.0,89,0.00,,---,0.01,VWS V14.00,2013-02-24 00:54:00,
2013-02-23 18:59:00,18.4,15.7,29.92,WSW,239,0.0,0.0,89,0.00,,---,0.01,VWS V14.00,2013-02-24 00:59:00,
2013-02-23 19:00:00,18.5,15.8,29.93,WSW,239,0.0,5.0,89,0.00,,---,0.01,VWS V14.00,2013-02-24 01:00:00,
2013-02-23 19:04:00,18.1,15.7,29.92,WSW,239,0.0,0.0,90,0.00,,---,0.01,VWS V14.00,2013-02-24 01:04:00,
2013-02-23 19:09:00,17.9,15.5,29.92,WSW,239,0.0,0.0,90,0.00,,---,0.01,VWS V14.00,2013-02-24 01:09:00,
2013-02-23 19:14:00,17.7,15.3,29.93,WSW,239,0.0,0.0,90,0.00,,---,0.01,VWS V14.00,2013-02-24 01:14:00,
2013-02-23 19:19:00,17.2,14.8,29.93,WSW,239,0.0,0.0,90,0.00,,---,0.01,VWS V14.00,2013-02-24 01:19:00,
2013-02-23 19:24:00,16.8,14.1,29.93,WSW,239,0.0,0.0,89,0.00,,---,0.01,VWS V14.00,2013-02-24 01:24:00,
2013-02-23 19:29:00,16.1,13.4,29.93,WSW,239,0.0,0.0,89,0.00,,---,0.01,VWS V14.00,2013-02-24 01:29:00,
2013-02-23 19:30:00,16.5,13.8,29.93,WSW,239,0.0,0.0,89,0.00,,---,0.01,VWS V14.00,2013-02-24 01:30:00,
2013-02-23 19:34:00,15.2,12.3,29.93,WSW,239,0.0,0.0,88,0.00,,---,0.01,VWS V14.00,2013-02-24 01:34:00,
2013-02-23 19:39:00,14.6,11.9,29.93,WSW,239,0.0,0.0,89,0.00,,---,0.01,VWS V14.00,2013-02-24 01:39:00,
2013-02-23 19:44:00,14.0,11.4,29.93,WSW,239,0.0,0.0,89,0.00,,---,0.01,VWS V14.00,2013-02-24 01:44:00,
2013-02-23 19:49:00,13.4,10.5,29.93,WSW,239,0.0,0.0,88,0.00,,---,0.01,VWS V14.00,2013-02-24 01:49:00,
2013-02-23 19:54:00,13.0,10.4,29.93,WSW,239,0.0,0.0,89,0.00,,---,0.01,VWS V14.00,2013-02-24 01:54:00,
2013-02-23 19:59:00,12.6,10.0,29.93,WSW,239,0.0,0.0,89,0.00,,---,0.01,VWS V14.00,2013-02-24 01:59:00,
2013-02-23 20:00:00,12.8,10.2,29.93,WSW,239,0.0,0.0,89,0.00,,---,0.01,VWS V14.00,2013-02-24 02:00:00,
2013-02-23 20:04:00,12.3,9.7,29.93,WSW,239,0.0,0.0,89,0.00,,---,0.01,VWS V14.00,2013-02-24 02:04:00,
2013-02-23 20:09:00,12.2,9.8,29.93,WSW,239,0.0,0.0,90,0.00,,---,0.01,VWS V14.00,2013-02-24 02:09:00,
2013-02-23 20:14:00,12.2,9.8,29.93,WSW,239,0.0,0.0,90,0.00,,---,0.01,VWS V14.00,2013-02-24 02:14:00,
2013-02-23 20:19:00,12.0,9.6,29.94,WSW,239,0.0,0.0,90,0.00,,---,0.01,VWS V14.00,2013-02-24 02:19:00,
2013-02-23 20:24:00,12.0,9.9,29.94,WSW,239,0.0,0.0,91,0.00,,---,0.01,VWS V14.00,2013-02-24 02:24:00,
2013-02-23 20:29:00,12.0,9.9,29.94,WSW,239,0.0,0.0,91,0.00,,---,0.01,VWS V14.00,2013-02-24 02:29:00,
2013-02-23 20:30:00,12.0,9.9,29.94,WSW,239,0.0,0.0,91,0.00,,---,0.01,VWS V14.00,2013-02-24 02:30:00,
2013-02-23 20:34:00,12.1,10.0,29.94,WSW,239,0.0,0.0,91,0.00,,---,0.01,VWS V14.00,2013-02-24 02:34:00,
2013-02-23 20:39:00,12.1,10.0,29.94,WSW,239,0.0,0.0,91,0.00,,---,0.01,VWS V14.00,2013-02-24 02:39:00,
2013-02-23 20:44:00,11.9,9.8,29.94,WSW,239,0.0,0.0,91,0.00,,---,0.01,VWS V14.00,2013-02-24 02:44:00,
2013-02-23 20:49:00,11.9,9.8,29.94,WSW,239,0.0,0.0,91,0.00,,---,0.01,VWS V14.00,2013-02-24 02:49:00,
2013-02-23 20:54:00,11.7,9.6,29.94,WSW,239,0.0,0.0,91,0.00,,---,0.01,VWS V14.00,2013-02-24 02:54:00,
2013-02-23 20:59:00,11.6,9.5,29.94,WSW,239,0.0,0.0,91,0.00,,---,0.01,VWS V14.00,2013-02-24 02:59:00,
2013-02-23 21:00:00,11.7,9.6,29.94,WSW,239,0.0,0.0,91,0.00,,---,0.01,VWS V14.00,2013-02-24 03:00:00,
2013-02-23 21:04:00,11.3,9.2,29.95,WSW,239,0.0,0.0,91,0.00,,---,0.01,VWS V14.00,2013-02-24 03:04:00,
2013-02-23 21:09:00,10.9,8.6,29.95,WSW,239,0.0,0.0,90,0.00,,---,0.01,VWS V14.00,2013-02-24 03:09:00,
2013-02-23 21:14:00,10.6,8.2,29.95,WSW,239,0.0,0.0,90,0.00,,---,0.01,VWS V14.00,2013-02-24 03:14:00,
2013-02-23 21:19:00,10.3,8.0,29.95,WSW,239,0.0,0.0,90,0.00,,---,0.01,VWS V14.00,2013-02-24 03:19:00,
2013-02-23 21:24:00,10.0,7.7,29.95,WSW,239,0.0,0.0,90,0.00,,---,0.01,VWS V14.00,2013-02-24 03:24:00,
2013-02-23 21:29:00,9.8,7.5,29.95,WSW,239,0.0,0.0,90,0.00,,---,0.01,VWS V14.00,2013-02-24 03:29:00,
2013-02-23 21:30:00,9.9,7.6,29.95,WSW,239,0.0,0.0,90,0.00,,---,0.01,VWS V14.00,2013-02-24 03:30:00,
2013-02-23 21:34:00,9.5,6.9,29.95,WSW,239,0.0,0.0,89,0.00,,---,0.01,VWS V14.00,2013-02-24 03:34:00,
2013-02-23 21:39:00,9.2,6.6,29.95,WSW,239,0.0,0.0,89,0.00,,---,0.01,VWS V14.00,2013-02-24 03:39:00,
2013-02-23 21:44:00,9.0,6.4,29.95,WSW,239,0.0,0.0,89,0.00,,---,0.01,VWS V14.00,2013-02-24 03:44:00,
2013-02-23 21:49:00,8.7,6.1,29.95,WSW,239,0.0,0.0,89,0.00,,---,0.01,VWS V14.00,2013-02-24 03:49:00,
2013-02-23 21:54:00,8.6,6.0,29.95,WSW,239,0.0,0.0,89,0.00,,---,0.01,VWS V14.00,2013-02-24 03:54:00,
2013-02-23 21:59:00,8.2,5.6,29.96,WSW,239,0.0,0.0,89,0.00,,---,0.01,VWS V14.00,2013-02-24 03:59:00,
2013-02-23 22:00:00,8.4,5.8,29.96,WSW,239,0.0,0.0,89,0.00,,---,0.01,VWS V14.00,2013-02-24 04:00:00,
2013-02-23 22:04:00,8.0,5.4,29.96,WSW,239,0.0,0.0,89,0.00,,---,0.01,VWS V14.00,2013-02-24 04:04:00,
2013-02-23 22:09:00,7.8,5.2,29.96,WSW,239,0.0,0.0,89,0.00,,---,0.01,VWS V14.00,2013-02-24 04:09:00,
2013-02-23 22:14:00,7.6,5.0,29.96,WSW,239,0.0,0.0,89,0.00,,---,0.01,VWS V14.00,2013-02-24 04:14:00,
2013-02-23 22:19:00,7.4,4.8,29.97,WSW,239,0.0,0.0,89,0.00,,---,0.01,VWS V14.00,2013-02-24 04:19:00,
2013-02-23 22:24:00,7.2,4.4,29.97,WSW,239,0.0,0.0,88,0.00,,---,0.01,VWS V14.00,2013-02-24 04:24:00,
2013-02-23 22:29:00,7.0,4.2,29.97,WSW,239,0.0,0.0,88,0.00,,---,0.01,VWS V14.00,2013-02-24 04:29:00,
2013-02-23 22:30:00,7.1,4.3,29.97,WSW,239,0.0,0.0,88,0.00,,---,0.01,VWS V14.00,2013-02-24 04:30:00,
2013-02-23 22:34:00,6.9,4.3,29.97,WSW,239,0.0,0.0,89,0.00,,---,0.01,VWS V14.00,2013-02-24 04:34:00,
2013-02-23 22:39:00,7.1,4.6,29.98,WSW,239,0.0,0.0,89,0.00,,---,0.01,VWS V14.00,2013-02-24 04:39:00,
2013-02-23 22:44:00,7.0,4.4,29.98,WSW,239,0.0,0.0,89,0.00,,---,0.01,VWS V14.00,2013-02-24 04:44:00,
2013-02-23 22:49:00,6.8,4.2,29.98,WSW,239,0.0,0.0,89,0.00,,---,0.01,VWS V14.00,2013-02-24 04:49:00,
2013-02-23 22:54:00,6.6,4.1,29.98,WSW,239,0.0,0.0,89,0.00,,---,0.01,VWS V14.00,2013-02-24 04:54:00,
2013-02-23 22:59:00,6.4,3.6,29.98,WSW,239,0.0,0.0,88,0.00,,---,0.01,VWS V14.00,2013-02-24 04:59:00,
2013-02-23 23:00:00,6.4,3.6,29.98,WSW,239,0.0,0.0,88,0.00,,---,0.01,VWS V14.00,2013-02-24 05:00:00,
2013-02-23 23:05:00,6.1,3.3,29.99,WSW,239,0.0,0.0,88,0.00,,---,0.01,VWS V14.00,2013-02-24 05:05:00,
2013-02-23 23:10:00,5.9,3.1,29.98,WSW,239,0.0,0.0,88,0.00,,---,0.01,VWS V14.00,2013-02-24 05:10:00,
2013-02-23 23:15:00,5.7,2.9,29.98,WSW,239,0.0,0.0,88,0.00,,---,0.01,VWS V14.00,2013-02-24 05:15:00,
2013-02-23 23:20:00,5.6,2.8,29.98,WSW,239,0.0,0.0,88,0.00,,---,0.01,VWS V14.00,2013-02-24 05:20:00,
2013-02-23 23:25:00,5.4,2.6,29.98,WSW,239,0.0,0.0,88,0.00,,---,0.01,VWS V14.00,2013-02-24 05:25:00,
2013-02-23 23:30:00,5.3,2.5,29.98,WSW,239,0.0,0.0,88,0.00,,---,0.01,VWS V14.00,2013-02-24 05:30:00,
2013-02-23 23:35:00,5.1,2.3,29.98,WSW,239,0.0,0.0,88,0.00,,---,0.01,VWS V14.00,2013-02-24 05:35:00,
2013-02-23 23:40:00,5.1,2.3,29.98,WSW,239,0.0,0.0,88,0.00,,---,0.01,VWS V14.00,2013-02-24 05:40:00,
2013-02-23 23:45:00,5.1,2.3,29.98,WSW,239,0.0,0.0,88,0.00,,---,0.01,VWS V14.00,2013-02-24 05:45:00,
2013-02-23 23:50:00,5.1,2.3,29.98,WSW,239,0.0,0.0,88,0.00,,---,0.01,VWS V14.00,2013-02-24 05:50:00,
2013-02-23 23:55:00,5.3,2.8,29.98,WSW,239,0.0,0.0,89,0.00,,---,0.01,VWS V14.00,2013-02-24 05:55:00,